Theta_e
348 347 345 342 342 341 340 341 341 342 342 342 344 344 345 346 346 346 346 347 347 348 347 346 344 343 342 340 338 337 338 341 344 346 347 348 348 347 348 348 348 348 348 347 345 343 343 344 345 345 344 343 343 343 343 343 344 344 345 345 347 349 349
348 348 347 343 342 341 341 341 341 342 342 342 343 344 345 346 346 346 346 347 347 347 348 347 345 343 342 340 338 337 337 338 342 344 347 348 348 347 347 347 348 348 349 348 347 347 346 345 345 344 344 344 343 343 343 343 343 343 344 345 346 347 347
348 348 347 345 342 341 341 341 342 342 342 343 343 344 345 345 345 345 346 346 347 348 347 346 344 343 341 339 337 337 337 337 338 341 344 346 347 347 347 347 347 348 348 348 348 348 347 346 346 345 345 345 344 344 343 343 343 344 345 346 346 345 344
348 348 348 346 343 342 342 342 342 343 342 343 343 344 344 345 345 345 346 346 348 348 347 344 342 341 339 337 336 336 336 336 337 338 340 343 346 347 346 346 347 347 347 348 348 348 347 347 346 345 346 346 346 346 345 344 343 344 345 346 346 344 343
347 347 348 347 345 343 342 342 342 342 343 343 344 344 344 345 345 346 346 346 347 349 347 344 341 339 338 336 335 335 335 335 335 335 337 341 344 346 346 346 347 346 345 346 347 348 347 346 346 346 346 347 348 348 347 346 345 345 345 345 344 344 343
347 347 348 348 347 345 343 343 343 342 343 343 343 344 345 345 345 346 346 346 347 349 349 347 344 341 339 338 337 336 335 334 334 334 335 339 342 343 343 344 345 344 344 345 345 346 346 346 345 346 345 346 347 347 347 346 346 346 345 344 344 343 343
346 347 348 348 347 347 345 344 343 343 344 344 345 345 345 345 345 346 346 346 347 349 350 349 347 344 342 340 339 338 336 334 333 333 334 337 339 340 340 340 341 341 343 344 344 344 344 344 344 345 345 345 345 346 347 346 346 347 347 346 344 343 343
346 347 348 348 348 347 346 345 344 344 344 345 345 346 346 345 346 346 347 347 347 349 349 350 349 346 344 343 342 340 338 335 333 332 334 336 337 337 337 337 337 338 342 343 343 343 343 342 343 345 346 346 346 347 348 348 348 348 348 347 346 344 344
348 348 348 348 348 347 346 345 344 344 344 344 345 345 346 346 346 346 346 347 348 349 349 349 349 348 348 348 346 343 339 336 334 333 333 334 335 335 336 335 335 337 340 342 342 342 342 343 344 345 346 347 348 349 350 350 349 348 347 347 347 346 345
349 349 349 348 347 347 346 346 345 345 345 345 345 346 346 346 345 346 346 347 348 349 349 348 348 349 349 350 350 347 342 338 335 334 333 333 334 334 335 335 334 336 338 340 341 341 343 344 345 346 346 347 348 349 350 350 350 350 348 346 345 345 345
350 350 349 348 347 347 347 347 347 346 346 346 346 346 347 347 347 346 346 346 347 349 350 350 349 349 348 349 350 349 345 340 337 336 334 333 333 333 334 335 335 336 339 340 341 342 344 345 347 348 348 348 348 349 349 349 350 350 349 346 344 342 343
350 350 350 349 348 348 347 346 347 347 347 347 348 348 348 348 348 348 347 347 347 347 349 351 351 350 349 348 350 350 347 343 339 338 337 335 333 333 334 335 335 337 339 341 341 342 343 346 348 349 349 350 350 351 351 350 349 349 349 349 348 346 344
349 350 350 350 350 350 349 348 347 348 347 348 348 348 348 349 349 348 348 348 348 347 348 350 351 351 350 349 348 349 348 344 341 342 341 338 335 333 334 335 336 338 339 341 342 342 343 346 349 350 350 351 352 352 352 351 350 350 350 350 350 349 347
348 348 349 350 350 350 350 350 349 349 349 349 349 348 348 348 347 348 348 348 348 348 348 348 349 351 351 350 348 348 348 345 343 343 343 342 339 337 337 337 338 338 339 340 341 341 344 347 350 351 351 352 352 352 352 351 351 351 351 350 350 350 349
346 347 347 348 348 348 349 349 349 349 349 349 349 349 348 348 347 347 347 347 348 349 348 348 349 350 351 350 349 348 348 346 344 344 344 344 342 342 341 341 341 340 339 339 339 340 343 348 351 351 352 352 352 352 352 351 351 350 351 351 351 351 350
346 346 347 347 347 348 348 348 348 348 348 348 347 348 348 347 348 348 347 347 347 347 348 348 349 350 352 352 351 350 349 347 345 344 344 344 343 343 343 343 342 342 341 340 340 340 341 345 349 351 352 352 352 352 352 352 351 351 351 351 352 352 351
345 345 346 347 347 348 348 348 349 349 349 349 348 348 348 348 349 348 347 347 346 346 347 348 351 353 354 354 354 353 352 350 347 345 344 344 343 342 343 343 344 343 343 343 342 341 341 342 345 348 350 352 352 352 352 352 352 352 351 351 351 351 351
344 345 345 346 346 347 348 348 349 349 349 349 349 349 348 349 349 349 348 348 346 346 346 349 352 354 353 353 353 353 354 353 351 349 347 345 344 344 345 347 348 347 347 346 345 344 343 343 344 346 348 350 351 352 352 351 351 350 349 349 350 350 350
344 344 345 345 345 346 347 347 348 348 349 349 349 349 349 349 349 349 349 348 347 346 346 347 350 352 353 354 352 350 350 352 352 352 352 350 349 349 349 351 351 351 350 348 348 348 347 347 347 348 348 350 351 350 350 349 349 348 347 348 350 350 350
344 344 344 344 345 345 345 346 347 347 348 349 349 349 349 349 349 348 348 348 347 347 347 346 347 348 352 354 351 348 347 349 351 353 354 354 353 352 350 350 351 351 349 348 348 348 349 349 350 350 350 351 350 350 349 348 348 348 348 349 350 350 350
343 344 344 344 344 344 344 345 345 346 347 348 349 349 349 349 349 349 349 348 348 348 349 349 349 350 351 352 351 349 349 350 351 350 350 350 350 351 350 350 350 351 350 349 348 348 349 349 350 350 350 350 350 349 349 349 349 348 348 349 350 351 351
343 343 343 344 343 344 344 344 344 344 345 345 347 347 348 348 349 348 349 349 350 350 350 350 351 352 352 351 351 350 349 349 348 347 346 347 348 349 350 350 350 350 350 349 349 348 348 348 348 349 348 348 348 349 350 349 349 348 348 348 349 350 350
341 341 342 342 341 341 341 341 341 341 342 342 343 343 343 344 344 344 345 347 349 351 351 351 351 350 349 348 348 348 347 346 347 347 347 348 348 349 350 349 349 349 350 350 350 349 349 349 348 349 348 348 349 350 350 351 350 350 349 349 349 349 349
339 339 339 339 339 338 338 338 338 337 336 335 335 337 338 339 340 341 343 345 347 350 350 348 348 348 348 347 347 346 346 347 348 348 347 347 347 347 348 350 349 350 350 351 350 350 350 351 350 350 350 350 350 350 350 351 351 351 350 350 350 350 350
339 339 338 336 336 336 336 336 335 333 330 326 327 331 334 335 336 338 341 344 346 348 348 347 347 348 348 349 349 348 348 349 349 349 349 348 348 347 348 349 350 350 349 349 349 349 349 349 350 350 350 349 349 349 350 350 350 350 350 351 351 351 350
337 336 335 333 333 334 334 333 333 332 329 322 322 326 330 333 335 336 337 339 341 343 344 344 345 346 348 348 348 347 348 349 349 349 348 346 345 346 346 346 346 347 346 345 346 346 346 348 348 348 348 348 348 348 348 349 349 349 350 350 351 351 350
335 332 330 329 330 330 331 330 330 331 329 322 319 323 330 333 335 335 335 336 337 337 338 339 341 341 342 343 343 344 345 346 345 345 344 342 341 341 341 340 341 342 343 343 344 344 344 345 346 346 347 347 347 347 347 347 347 347 348 348 348 348 348
331 328 327 325 324 324 325 327 329 330 327 319 316 322 329 333 334 334 334 334 333 333 333 335 336 336 337 338 339 340 340 339 339 338 338 338 338 338 339 339 339 340 341 342 343 343 343 344 344 344 345 344 344 344 344 344 345 345 345 345 345 345 345
326 324 322 319 317 317 320 322 324 323 319 313 312 318 325 330 332 332 331 329 329 329 330 333 334 335 335 335 335 335 335 335 335 336 337 338 338 338 339 339 339 339 341 342 343 343 343 343 343 343 343 342 342 342 342 342 343 343 343 342 342 342 342
319 316 313 311 311 312 314 315 315 312 310 308 310 313 317 321 324 324 322 322 323 324 326 329 331 332 332 332 332 332 332 332 333 334 335 337 337 337 338 338 338 338 339 339 340 340 340 340 339 339 338 338 337 338 339 339 339 339 340 340 340 340 339
315 313 312 310 309 308 308 308 308 308 307 308 309 310 312 313 315 316 317 319 320 319 319 322 326 328 329 329 330 329 330 331 332 331 332 333 333 334 335 336 336 337 337 337 337 336 336 336 336 335 334 332 332 333 333 334 333 333 334 333 334 334 334
317 318 316 314 313 311 310 309 308 308 308 308 308 309 311 311 311 313 316 318 319 319 320 320 321 323 325 326 326 326 326 328 328 327 327 327 328 330 331 332 332 331 331 333 334 334 334 334 334 335 334 332 331 331 331 331 331 331 331 331 331 330 331
319 318 317 316 316 314 313 312 311 311 310 310 309 308 309 310 312 314 317 318 318 319 320 320 319 320 321 322 323 323 323 323 323 322 322 323 324 325 327 328 327 326 324 324 328 331 331 330 330 331 333 334 333 332 332 333 333 333 332 332 331 330 331
319 317 317 317 316 315 314 313 313 313 313 312 312 311 311 311 312 313 315 316 316 317 319 320 319 319 321 321 321 322 321 320 320 321 321 321 321 321 321 319 318 318 317 318 320 325 327 327 325 324 326 329 330 330 330 329 330 330 330 329 328 326 325
318 317 318 318 318 318 316 314 315 315 314 314 313 313 313 313 312 311 311 311 311 313 317 319 319 319 320 320 320 320 320 320 321 320 320 318 316 317 316 313 309 309 311 313 316 319 322 324 324 322 322 323 323 321 319 317 317 319 320 320 319 317 315
321 320 320 320 322 324 322 320 319 319 318 317 316 315 314 314 313 313 312 312 311 311 313 315 316 317 319 319 321 322 322 322 322 322 321 318 313 310 310 309 308 310 310 310 312 315 316 318 319 318 317 316 314 312 310 309 309 309 309 310 310 308 308
324 324 324 324 325 326 325 324 323 321 321 321 320 319 318 317 316 316 316 315 315 313 313 313 313 313 314 315 319 322 323 323 323 322 320 316 310 306 306 307 308 312 312 310 310 311 312 312 312 312 311 311 310 310 310 310 309 308 308 308 307 307 307
326 326 326 327 327 327 326 326 325 324 323 322 322 321 320 319 319 319 318 318 318 316 315 314 314 313 312 312 314 317 318 318 318 316 313 310 306 306 308 309 310 311 311 312 312 313 314 314 314 313 312 310 311 312 312 312 311 310 310 309 308 309 311
Wind_Speed
29 29 32 33 34 36 37 37 37 36 35 34 32 30 28 26 23 22 21 20 19 19 19 20 21 21 21 22 23 24 24 23 23 22 20 18 17 16 16 14 13 13 13 13 12 11 10 10 11 12 12 11 10 10 10 10 10 10 11 11 10 9 8
29 30 30 32 34 36 37 37 37 37 36 35 33 31 29 27 25 22 21 20 19 19 20 21 21 22 22 23 24 24 24 23 23 23 22 20 18 17 16 15 14 13 13 12 11 11 10 10 11 12 12 12 11 11 10 10 10 10 10 10 10 10 9
31 32 32 32 34 35 37 37 38 38 37 36 35 33 30 28 25 22 20 20 20 20 20 21 22 22 23 23 24 24 24 24 24 24 23 21 19 18 17 16 15 14 13 12 11 11 11 11 11 11 12 12 11 11 11 11 11 10 10 10 11 11 10
32 32 32 32 34 35 36 37 38 39 38 37 35 33 31 28 25 23 21 20 20 20 21 21 23 23 24 24 24 24 24 24 24 24 23 21 20 18 17 17 16 15 14 13 12 12 12 12 12 11 12 12 11 12 12 11 11 11 11 11 12 11 10
29 31 31 31 33 34 36 37 38 39 38 37 36 34 31 28 26 25 23 22 21 20 20 21 22 23 24 24 24 24 24 24 24 24 23 22 20 19 18 18 17 16 15 14 14 13 13 13 13 12 12 12 12 12 12 12 12 12 12 12 12 12 11
26 28 30 31 32 33 35 36 38 38 38 38 36 35 33 30 29 27 24 23 22 21 20 21 21 22 23 23 23 23 23 23 24 24 24 23 21 20 19 19 18 17 16 16 15 14 14 15 14 13 13 13 13 13 13 13 13 13 13 13 12 12 11
24 25 28 29 30 31 32 35 36 37 38 38 37 36 34 33 31 29 27 25 23 22 21 21 21 21 22 22 22 22 23 23 23 24 24 24 22 21 20 19 18 17 17 16 16 15 15 15 15 15 14 14 14 14 13 13 13 13 13 13 13 12 12
20 24 26 27 29 29 30 33 35 37 38 38 38 37 36 34 32 31 30 28 25 23 22 22 21 21 20 20 21 21 22 22 23 24 25 24 23 22 21 19 18 17 17 16 15 15 15 15 15 15 15 15 14 14 13 13 13 13 14 14 13 13 13
17 21 24 25 26 26 27 31 33 36 38 38 39 38 37 35 32 31 32 32 29 25 23 22 21 21 21 21 20 20 21 22 22 24 25 25 24 23 21 20 18 17 17 17 16 16 16 15 15 15 16 15 15 14 14 14 13 13 14 14 14 14 13
13 16 21 22 23 24 25 26 29 33 36 37 38 38 38 37 33 31 32 33 33 30 26 23 22 23 23 23 21 20 21 22 22 23 25 25 25 23 22 20 19 18 17 17 17 17 16 16 15 16 16 16 15 15 14 14 14 13 14 15 15 14 14
11 12 16 18 20 22 24 24 24 27 31 34 36 37 38 37 35 34 33 32 33 33 31 28 26 25 25 24 23 22 22 22 22 23 24 25 25 24 22 21 20 19 18 18 18 17 17 16 16 16 16 16 15 15 14 14 14 14 14 15 15 15 15
11 11 13 14 15 17 21 23 23 24 26 29 31 33 35 36 35 35 34 34 33 33 34 33 32 30 27 26 25 25 24 23 23 23 23 24 24 24 23 22 21 20 19 18 18 18 18 17 17 17 17 16 14 14 14 14 15 15 15 15 15 16 16
9 9 11 11 11 12 15 18 19 20 22 25 27 28 29 31 32 32 33 35 35 34 35 35 34 33 30 28 26 26 25 24 24 23 23 23 24 24 24 23 22 22 21 20 19 19 19 18 17 17 17 16 15 15 15 15 15 15 15 15 16 17 17
9 8 8 8 9 10 12 15 18 19 20 22 23 24 25 25 28 31 34 36 36 36 36 36 35 35 33 31 29 27 26 25 24 24 23 23 23 24 24 24 23 23 23 22 22 21 21 20 18 18 18 18 17 16 16 16 16 16 16 16 16 17 18
5 6 5 6 8 9 11 14 18 21 23 25 26 27 28 27 27 31 35 37 36 37 38 38 37 36 36 35 33 29 26 25 24 24 23 22 22 22 23 23 23 23 23 23 23 22 22 21 19 18 18 19 18 18 17 17 17 17 16 16 16 17 17
3 4 4 3 5 8 10 12 15 18 21 25 26 27 29 29 28 29 33 36 36 36 38 39 39 37 36 36 35 32 28 26 24 24 23 21 21 21 21 22 22 22 22 23 23 23 22 22 21 20 20 20 19 19 19 19 18 18 18 19 20 19 19
8 7 6 4 2 3 7 10 13 16 18 21 23 25 27 28 28 29 31 34 34 34 36 37 37 35 34 34 33 31 29 27 24 23 23 22 21 20 20 21 21 22 22 23 23 23 23 22 22 22 21 21 21 20 20 21 21 22 23 23 22 22 21
12 9 7 5 4 4 5 6 9 12 15 17 20 22 24 25 25 27 30 32 33 33 35 36 35 33 32 33 31 28 26 24 21 20 22 22 21 20 19 18 20 21 21 21 22 23 23 23 23 23 22 22 22 22 22 23 22 22 23 22 20 19 20
14 12 10 8 6 5 5 6 7 8 11 13 15 18 21 23 24 25 28 30 31 32 35 37 34 32 32 32 30 26 22 20 18 18 19 20 20 19 18 18 19 20 20 20 21 21 22 23 23 23 23 23 23 24 24 23 23 23 24 23 20 19 20
14 13 12 11 9 7 6 4 5 7 9 11 14 17 19 21 23 24 26 29 31 34 37 38 36 34 32 29 27 25 21 18 18 18 18 19 19 18 19 20 21 20 20 20 21 21 22 23 24 24 24 24 24 25 25 24 23 22 23 24 23 22 23
15 13 12 11 9 9 8 7 5 5 6 8 12 16 18 21 23 24 26 28 32 34 36 37 36 33 31 28 25 23 21 19 18 18 18 18 18 18 20 21 21 20 20 21 21 21 20 21 23 23 22 21 22 24 25 23 22 23 23 25 26 26 26
13 12 11 11 10 11 11 11 9 7 6 6 8 10 11 14 17 19 20 25 30 32 32 31 29 27 26 25 24 23 22 19 17 17 15 14 14 15 17 19 20 21 22 22 22 22 22 22 23 22 22 22 23 23 23 23 23 24 24 25 27 28 29
12 12 13 13 12 13 13 13 13 12 11 9 8 7 8 7 6 9 8 13 20 24 24 24 23 22 19 17 17 18 18 18 17 17 14 11 11 12 14 16 19 22 23 24 25 24 24 24 24 24 24 25 25 24 24 23 24 25 26 26 27 28 29
12 13 13 14 15 16 17 17 17 16 15 15 15 17 17 16 14 10 4 11 12 16 17 16 16 16 14 12 11 12 14 16 17 17 16 15 14 14 17 18 19 21 23 24 25 25 26 26 25 25 26 26 26 25 25 25 26 27 28 28 29 29 30
11 12 13 14 15 15 16 15 15 15 17 18 19 19 18 16 15 13 12 12 9 11 12 10 9 10 10 11 11 12 13 13 12 11 12 14 13 14 18 20 18 18 19 18 19 20 21 22 22 23 24 25 25 24 24 25 26 27 29 30 31 31 31
11 12 12 13 13 13 12 11 12 13 17 19 18 17 16 15 14 15 16 14 12 10 8 8 7 6 7 9 9 10 10 10 11 12 12 12 11 11 14 16 16 17 17 17 17 16 15 16 17 18 19 20 21 22 22 23 24 25 26 27 29 31 31
11 11 11 12 12 11 10 9 10 12 15 17 16 16 16 15 15 17 17 16 17 17 15 12 9 7 5 4 3 2 4 4 7 8 8 8 10 9 8 9 12 14 15 16 17 15 14 14 15 16 16 17 18 20 21 21 21 22 22 23 24 25 25
9 9 10 10 10 9 9 9 10 11 12 14 15 15 15 14 15 16 15 17 19 19 17 15 13 12 11 10 8 6 5 6 5 5 5 4 4 5 4 4 6 7 8 9 10 10 10 12 12 12 13 14 14 16 17 17 17 18 17 17 18 19 19
7 8 8 9 9 9 8 8 8 9 11 12 14 14 14 13 14 14 14 16 17 16 15 14 13 12 12 12 11 11 10 10 10 9 9 8 7 6 5 4 4 4 5 5 6 6 6 7 7 8 9 9 8 8 10 11 11 12 13 13 14 14 15
8 8 9 10 10 9 9 8 8 9 10 12 13 13 13 13 12 13 14 15 15 14 13 13 12 12 12 12 11 11 10 10 10 10 9 9 9 7 5 5 4 4 4 4 5 5 4 3 3 3 3 3 2 3 5 6 7 7 8 9 9 10 10
10 11 11 12 12 11 10 10 10 10 11 12 13 13 13 12 11 12 13 13 12 11 10 10 10 9 9 9 9 8 8 8 8 8 8 8 8 7 5 5 5 4 3 3 4 5 5 5 5 5 6 6 5 4 3 4 5 5 5 6 5 5 6
12 13 13 13 12 12 11 11 11 11 12 13 13 12 12 11 10 11 11 10 9 8 8 7 6 6 6 6 6 7 7 7 7 8 8 7 7 7 5 5 5 5 4 3 3 3 4 5 6 6 6 6 6 5 5 5 6 6 6 7 7 6 6
12 13 13 13 13 13 12 12 12 12 12 12 12 12 12 10 9 10 9 9 8 8 7 6 6 6 6 6 7 7 7 7 7 8 7 7 7 6 5 4 5 5 5 5 5 4 3 4 4 4 4 4 3 3 4 5 6 7 7 7 7 8 8
10 12 12 12 12 13 12 12 13 13 13 13 12 12 11 10 9 8 7 7 7 7 7 7 7 7 6 6 7 7 7 8 8 8 8 8 8 6 6 6 6 6 5 5 5 6 5 5 5 5 4 4 4 5 6 7 8 9 10 10 10 11 12
7 8 8 9 10 11 11 11 11 12 12 12 12 12 11 11 10 9 8 7 7 6 6 6 7 7 7 6 7 7 7 7 8 8 9 10 10 8 8 9 8 6 4 4 4 4 5 6 7 7 7 7 8 9 10 11 11 11 12 12 12 13 13
4 4 6 7 8 8 9 8 9 9 9 9 10 10 10 10 10 9 9 8 8 8 7 7 7 7 7 7 7 7 7 7 8 8 9 11 12 10 10 10 8 7 5 4 3 3 3 4 5 6 7 9 10 11 11 11 10 10 10 10 10 11 10
5 5 6 6 6 6 6 5 5 5 5 6 7 7 7 7 7 7 7 7 7 7 7 8 8 8 8 8 7 7 7 7 8 9 10 11 10 9 9 8 7 7 6 5 4 3 3 4 4 5 6 7 7 8 9 10 10 10 10 9 9 8 8
6 5 5 6 5 5 4 4 4 3 2 2 3 4 5 6 5 6 6 6 5 5 5 6 6 7 8 8 8 8 8 8 8 9 10 9 7 6 5 5 5 6 6 5 5 5 5 5 5 6 6 6 6 7 8 9 11 12 12 13 12 11 11
Wind_Direction
202 201 203 208 210 211 213 215 216 216 217 219 221 221 222 223 223 223 222 222 224 226 225 223 222 224 227 229 230 229 227 227 227 227 229 232 233 235 240 241 240 238 238 239 240 239 236 231 229 232 231 230 232 235 241 244 246 249 251 254 257 259 260
202 202 202 205 208 210 213 216 217 217 218 220 221 222 223 224 224 225 225 224 226 229 230 229 227 227 230 231 231 230 228 228 230 231 232 234 236 237 241 245 247 245 243 244 244 243 241 235 233 235 233 232 234 237 241 244 247 250 253 255 258 259 257
201 201 201 204 208 210 212 214 216 218 219 220 221 221 223 225 226 228 228 227 227 229 230 230 230 230 232 232 231 230 230 230 231 233 234 236 238 240 243 247 249 251 250 247 246 245 243 239 238 239 237 235 237 240 242 243 244 248 249 251 255 256 255
200 201 201 204 208 211 213 214 215 217 219 222 223 223 224 226 228 230 231 231 229 229 228 228 229 230 231 232 231 231 231 231 233 235 237 237 240 243 245 247 250 254 254 250 249 248 245 242 241 241 240 237 238 243 246 244 244 245 245 247 251 253 253
201 201 200 202 205 208 211 214 216 218 220 222 224 225 226 228 229 230 232 233 233 233 232 231 231 231 232 232 232 233 233 233 235 236 237 238 240 243 246 247 250 254 254 251 249 249 248 247 246 246 243 240 240 243 247 248 246 246 246 247 250 253 254
201 201 200 201 203 207 211 214 218 220 221 223 224 226 228 229 229 230 232 233 233 233 233 232 232 232 234 234 233 234 233 233 235 235 236 237 238 242 246 249 252 253 253 251 250 251 251 251 251 251 248 246 245 244 246 248 248 249 250 251 254 256 256
202 203 202 202 204 207 211 214 217 219 221 223 223 224 226 229 231 232 234 234 233 232 231 231 232 232 234 235 234 234 234 233 234 234 234 235 237 241 245 249 253 254 254 253 251 251 253 254 254 254 253 251 250 250 249 248 249 251 254 256 258 260 260
203 205 204 205 207 209 212 213 215 217 219 221 222 223 225 227 231 234 236 236 234 233 232 232 233 233 234 235 236 236 235 234 234 233 234 236 237 240 243 247 252 254 255 255 252 251 253 254 255 255 256 255 254 254 253 252 252 252 255 259 261 262 262
193 199 201 204 205 207 210 212 215 217 220 222 223 225 226 226 229 234 238 238 236 235 235 234 235 236 237 238 239 238 236 235 234 233 235 237 238 239 241 245 249 252 255 256 256 255 255 256 256 256 256 256 256 256 256 257 256 253 255 258 261 262 262
181 183 190 195 196 197 200 204 210 215 219 222 223 225 226 226 229 232 236 238 237 236 237 236 237 238 238 239 239 239 237 235 234 234 235 237 239 241 241 243 246 250 253 255 257 258 258 258 257 255 254 255 256 257 258 258 257 255 256 256 259 261 261
169 167 175 182 189 195 198 202 207 212 217 220 222 224 226 228 230 232 234 238 239 239 238 238 238 239 239 240 239 238 237 234 234 234 235 237 239 241 242 243 245 247 250 252 254 256 258 257 255 253 253 254 255 257 257 257 257 257 258 259 260 260 259
161 161 163 170 178 187 196 203 209 213 216 219 221 224 226 228 230 232 235 238 240 242 243 241 240 241 241 242 241 239 238 235 234 234 234 236 237 239 241 242 243 244 245 247 249 252 253 252 250 249 249 249 252 256 258 259 260 260 261 263 263 261 258
129 141 153 163 172 181 191 199 209 217 219 221 223 225 228 230 230 234 238 240 241 244 246 245 245 243 242 243 241 239 237 234 233 233 233 233 233 235 238 239 241 242 242 244 245 248 248 246 245 245 246 247 248 253 258 262 264 264 265 266 266 265 261
112 119 133 151 172 193 204 211 221 229 232 232 231 233 236 238 239 242 244 243 242 243 246 248 248 246 244 243 240 237 235 233 232 231 231 232 231 233 237 239 241 242 243 244 244 244 244 242 241 243 247 248 249 253 256 260 263 265 266 268 268 268 265
151 150 167 188 200 205 209 220 231 239 244 247 247 248 248 247 245 245 245 244 244 245 247 250 250 248 246 245 242 237 234 232 231 231 232 232 232 234 237 240 242 244 246 246 246 245 243 240 239 243 248 248 249 254 257 260 263 264 267 270 273 273 271
80 98 134 205 236 229 225 230 236 241 247 250 253 254 253 249 245 243 242 242 243 246 248 250 250 250 247 245 243 241 238 235 232 231 232 233 234 235 238 240 242 244 247 248 249 248 247 244 242 243 248 250 251 255 259 263 265 265 266 268 270 273 273
46 56 69 60 16 282 260 251 244 241 243 247 252 256 255 252 248 244 242 240 241 245 249 249 247 245 244 243 242 241 240 238 235 234 234 233 236 239 241 244 245 246 247 248 248 248 247 246 245 244 246 249 252 255 259 263 265 267 267 267 268 270 271
46 44 42 38 26 349 311 287 267 257 253 255 259 261 261 259 254 249 244 240 239 241 244 244 244 243 243 244 242 241 240 240 240 241 239 237 240 244 247 250 250 249 250 249 246 245 244 244 244 244 244 245 249 254 258 261 265 268 269 269 270 273 274
49 46 44 38 28 11 341 316 297 281 273 270 269 267 264 259 253 248 245 242 240 240 239 239 241 244 244 241 237 236 239 243 244 244 244 244 247 248 250 254 254 251 251 249 245 243 245 245 244 245 246 249 254 258 260 261 264 266 267 266 267 272 275
56 55 55 51 46 41 20 336 301 287 280 272 267 265 260 254 250 249 248 245 242 240 238 237 238 239 238 234 231 231 235 239 240 240 244 249 253 253 252 256 259 256 254 252 248 247 247 249 249 249 250 254 259 262 263 264 265 266 265 263 262 265 269
56 54 56 53 44 37 26 11 347 316 298 283 271 263 258 253 249 247 248 246 242 239 237 237 237 235 232 228 226 228 230 232 238 244 246 247 249 249 249 255 261 262 262 260 257 254 252 253 256 256 256 259 262 264 265 266 267 267 266 263 261 261 263
53 54 55 46 32 23 18 18 22 23 8 337 298 271 261 253 246 248 248 242 237 234 232 233 232 226 222 220 219 224 228 230 238 250 252 251 252 252 253 257 261 264 266 266 263 260 257 257 258 261 264 265 264 265 266 266 267 268 268 266 264 262 262
59 59 54 46 40 39 42 48 51 52 45 29 18 13 11 5 333 308 270 223 220 223 222 223 220 213 212 215 215 220 225 228 236 244 249 255 262 266 266 265 264 265 265 264 263 261 259 258 259 262 266 266 263 263 266 267 267 267 266 265 264 264 263
60 60 56 53 53 55 62 68 66 60 55 49 45 40 36 34 25 15 92 153 188 216 218 217 218 215 218 221 216 214 215 219 228 237 243 249 255 262 263 262 262 263 261 260 262 263 262 262 263 263 264 264 263 263 265 266 265 266 266 265 263 263 262
70 71 68 62 59 60 65 65 57 54 55 51 47 43 38 35 34 44 78 110 150 199 203 200 205 214 222 220 212 210 207 210 222 237 252 260 260 259 258 260 265 268 267 268 271 272 271 270 270 269 267 267 267 266 265 264 265 266 267 266 265 263 262
77 77 69 60 56 56 56 50 43 48 53 49 44 42 38 37 45 57 65 77 94 116 136 152 167 187 210 214 215 222 226 234 246 254 266 277 280 272 263 265 275 282 284 282 281 281 279 276 274 273 270 269 268 267 265 265 267 268 269 269 268 267 265
81 75 65 57 53 46 38 35 39 47 50 46 43 45 46 48 59 69 72 76 79 80 83 91 98 97 104 122 140 214 251 258 261 267 278 286 291 293 286 281 286 292 293 287 283 283 282 278 275 271 268 266 266 265 263 263 264 266 269 270 269 269 268
83 73 63 58 51 40 30 29 39 47 48 46 45 49 52 56 62 67 68 69 70 71 73 75 74 70 68 68 72 69 52 48 48 35 29 15 345 344 345 326 311 309 304 292 287 287 283 281 280 275 270 269 266 263 261 260 261 264 268 271 272 274 278
76 67 65 63 58 48 38 34 40 44 44 47 51 53 55 59 63 64 62 60 60 59 61 68 70 68 64 58 57 57 52 51 53 52 52 54 49 43 36 25 16 359 335 310 298 297 287 280 277 271 268 266 259 256 260 264 266 265 265 270 277 284 292
70 67 68 70 68 62 56 52 52 51 50 53 57 58 59 61 64 68 69 65 61 55 54 59 60 60 61 60 57 56 55 55 55 55 58 59 57 57 57 54 50 32 7 345 332 333 334 326 320 312 306 306 301 291 286 285 286 281 277 281 289 298 308
80 77 73 73 71 68 66 63 59 57 57 58 58 57 57 58 61 69 72 69 66 62 57 55 53 51 51 52 54 57 57 54 52 53 56 56 53 52 56 59 57 47 39 36 24 15 17 25 30 32 30 25 21 15 5 359 1 359 347 339 335 332 336
87 80 73 70 68 65 63 59 56 54 53 54 55 55 53 52 53 60 65 63 60 60 57 54 51 50 53 52 54 60 59 54 52 49 46 43 39 37 41 48 45 34 25 25 27 29 35 40 42 39 34 31 32 33 34 26 16 9 360 354 353 352 350
89 83 76 70 66 61 57 54 53 51 48 47 49 50 51 51 52 57 61 60 55 53 53 50 45 47 55 56 53 53 53 47 44 39 34 28 23 18 15 10 3 358 355 350 344 344 359 20 32 28 18 16 14 7 355 343 336 334 330 327 326 323 320
93 88 79 71 66 61 57 56 55 53 51 48 47 45 43 43 45 48 52 52 49 48 47 46 43 41 42 40 36 33 31 28 27 27 24 20 16 11 6 358 348 338 330 324 320 320 324 334 342 342 339 334 329 324 318 313 309 307 305 304 306 308 308
101 91 77 70 67 62 60 59 55 53 52 51 50 48 46 45 45 45 44 37 34 38 42 42 40 36 31 26 18 12 10 10 12 15 16 12 9 6 1 357 355 350 338 320 309 308 312 317 321 322 319 316 315 313 310 307 304 301 300 301 303 304 305
103 86 73 71 70 68 67 63 56 52 50 48 47 47 47 49 49 49 49 44 37 34 32 28 24 19 14 12 9 7 6 4 2 2 1 359 357 356 355 358 4 9 8 358 339 324 320 319 318 320 320 319 320 320 321 323 325 323 320 319 317 315 315
104 90 83 81 76 72 74 73 65 57 48 39 36 33 33 36 38 39 42 42 39 34 24 15 8 0 355 352 352 353 353 348 343 339 339 343 347 351 357 5 10 11 12 14 14 8 358 351 348 348 345 340 339 343 348 353 357 359 360 0 1 3 6
107 94 84 71 61 62 74 80 72 65 58 33 17 11 7 3 1 2 5 6 10 11 7 3 357 348 341 335 331 330 329 325 323 326 328 331 338 349 360 6 6 5 9 15 20 25 26 25 22 15 10 9 10 14 18 18 19 19 19 19 23 28 31